{"data":{"norad_id":58099,"intl_designator":"2023-161C","name":"STARLINK-30607","alt_names":[],"object_type":"PAYLOAD","status":"ACTIVE","operator":null,"country":"US","launch_date":"2023-10-21","launch_site_code":"AFWTR","launch_vehicle":null,"mission":null,"orbit_class":"UNKNOWN","rcs_meters":null,"size_class":null,"mass_kg":null,"dimensions":null,"purposes":["comms"],"wikipedia_slug":null,"has_3d_model":false,"image_url":null,"decayed_at":null,"tle_current":{"epoch":"2026-05-25T01:16:16.137984Z","epoch_age_seconds":70209,"freshness":"FRESH","line1":"1 58099U 23161C   26145.05296456  .00000370  00000+0  24625-4 0  9991","line2":"2 58099  53.1597 160.8037 0001191  82.6320 277.4816 15.30194140146241","mean_motion":15.3019414,"eccentricity":0.0001191,"inclination_deg":53.1597,"raan_deg":160.8037,"arg_perigee_deg":82.632,"mean_anomaly_deg":277.4816,"bstar":2.4625e-5,"rev_number":14624,"period_min":94.10570609034,"perigee_km":474.41633006353,"apogee_km":476.04880269425,"semimajor_km":6853.3695663789,"source":"CELESTRAK","updated_at":"2026-05-25T13:38:18.526215Z"}}}